Weather History for Plant City, FL

Change the Weather History Date:

Monday, November 12, 2012

  Actual Average Record
Temperature  
Mean Temperature 72 °F -  
Max Temperature 84 °F 78 °F 87 °F (1946)
Min Temperature 60 °F 54 °F 38 °F (1943)
Cooling Degree Days 7    
Growing Degree Days 22 (Base 50)    
Moisture  
Dew Point 63 °F    
Average Humidity 62    
Maximum Humidity 100    
Minimum Humidity 40    
Precipitation  
Precipitation 0.00 in - - ()
Sea Level Pressure  
Sea Level Pressure 30.22 in    
Wind  
Wind Speed 3 mph (East)    
Max Wind Speed 10 mph    
Max Gust Speed -    
Visibility 9 miles    
Events      
Averages and records for this station are not official NWS values.
T = Trace of Precipitation, MM = Missing Value Source: NWS Daily Summary

Daily Weather History Graph

Daily Weather History Graph

Search for Another Location

Airport:

Trip Planner

Search our weather history database for the weather conditions in past years. The results will help you decide how hot, cold, wet, or windy it might be!

Date:

Astronomy

Nov. 12, 2012 Rise Set
Actual Time 6:48 AM EST 5:37 PM EST
Civil Twilight 6:23 AM EST 6:01 PM EST
Nautical Twilight 5:55 AM EST 6:30 PM EST
Astronomical Twilight 5:27 AM EST 6:57 PM EST
Moon 5:16 AM EST (11/12) 4:38 PM EST (11/12)
Length of Visible Light 11h 38m
Length of Day
10h 48m
Waning Crescent, 2% of the Moon is Illuminated
Nov 12
Waning Crescent
Nov 13
New
Nov 20
First Quarter
Nov 28
Full
Dec 6
Last Quarter

Hourly Weather History & Observations

Time (EST) Temp. Heat Index Dew Point Humidity Pressure Visibility Wind Dir Wind Speed Gust Speed Precip Events Conditions
12:15 AM 64.4 °F - 64.4 °F 100% 30.25 in 10.0 mi East 3.5 mph - N/A   Scattered Clouds
12:35 AM 64.4 °F - - N/A% 30.25 in 10.0 mi Calm Calm - N/A   Scattered Clouds
1:15 AM 62.6 °F - - N/A% 30.24 in 10.0 mi Calm Calm - N/A   Clear
1:55 AM 62.6 °F - - N/A% 30.24 in 10.0 mi Calm Calm - N/A   Clear
2:15 AM 60.8 °F - - N/A% 30.24 in 10.0 mi NNE 3.5 mph - N/A   Clear
2:35 AM 62.6 °F - - N/A% 30.24 in 10.0 mi Calm Calm - N/A   Clear
2:55 AM 60.8 °F - - N/A% 30.23 in 7.0 mi Calm Calm - N/A   Clear
3:15 AM 62.6 °F - - N/A% 30.23 in 10.0 mi NNE 3.5 mph - N/A   Mostly Cloudy
3:35 AM 62.6 °F - - N/A% 30.23 in 10.0 mi North 3.5 mph - N/A   Overcast
3:55 AM 62.6 °F - - N/A% 30.23 in 10.0 mi NNE 3.5 mph - N/A   Overcast
4:15 AM 62.6 °F - - N/A% 30.22 in 7.0 mi NE 3.5 mph - N/A   Mostly Cloudy
4:35 AM 62.6 °F - - N/A% 30.22 in 7.0 mi Calm Calm - N/A   Scattered Clouds
4:55 AM 62.6 °F - - N/A% 30.22 in 7.0 mi ENE 4.6 mph - N/A   Scattered Clouds
5:15 AM 62.6 °F - - N/A% 30.22 in 7.0 mi ENE 4.6 mph - N/A   Scattered Clouds
5:35 AM 62.6 °F - - N/A% 30.22 in 10.0 mi Calm Calm - N/A   Scattered Clouds
5:55 AM 64.4 °F - - N/A% 30.22 in 10.0 mi Calm Calm - N/A   Mostly Cloudy
6:15 AM 62.6 °F - - N/A% 30.23 in 7.0 mi Calm Calm - N/A   Scattered Clouds
6:35 AM 62.6 °F - - N/A% 30.24 in 7.0 mi Calm Calm - N/A   Scattered Clouds
6:55 AM 62.6 °F - - N/A% 30.24 in 7.0 mi Calm Calm - N/A   Scattered Clouds
7:15 AM 62.6 °F - - N/A% 30.24 in 7.0 mi Calm Calm - N/A   Scattered Clouds
7:35 AM 64.4 °F - - N/A% 30.25 in 5.0 mi ENE 3.5 mph - N/A   Haze
7:55 AM 66.2 °F - - N/A% 30.26 in 7.0 mi Calm Calm - N/A   Scattered Clouds
8:15 AM 66.2 °F - - N/A% 30.26 in 7.0 mi Calm Calm - N/A   Scattered Clouds
8:35 AM 69.8 °F - - N/A% 30.26 in 10.0 mi East 4.6 mph - N/A   Scattered Clouds
8:55 AM 73.4 °F - - N/A% 30.26 in 10.0 mi East 3.5 mph - N/A   Clear
9:15 AM 75.2 °F - 66.2 °F 73% 30.27 in 10.0 mi East 4.6 mph - N/A   Clear
9:35 AM 77.0 °F - 66.2 °F 69% 30.27 in 10.0 mi East 8.1 mph - N/A   Clear
9:55 AM 78.8 °F - 66.2 °F 65% 30.27 in 10.0 mi East 6.9 mph - N/A   Clear
10:15 AM 78.8 °F - 66.2 °F 65% 30.27 in 10.0 mi ESE 9.2 mph - N/A   Scattered Clouds
10:55 AM 80.6 °F 82.3 °F 64.4 °F 58% 30.26 in 10.0 mi East 10.4 mph - N/A   Scattered Clouds
11:15 AM 78.8 °F - 64.4 °F 61% 30.26 in 10.0 mi ESE 8.1 mph - N/A   Scattered Clouds
11:35 AM 82.4 °F 83.9 °F 64.4 °F 54% 30.25 in 10.0 mi ENE 8.1 mph - N/A   Mostly Cloudy
11:55 AM 82.4 °F 83.4 °F 62.6 °F 51% 30.24 in 10.0 mi ESE 9.2 mph - N/A   Overcast
12:15 PM 82.4 °F 83.4 °F 62.6 °F 51% 30.23 in 10.0 mi East 8.1 mph - N/A   Mostly Cloudy
12:35 PM 82.4 °F 83.4 °F 62.6 °F 51% 30.22 in 10.0 mi ENE 8.1 mph - N/A   Mostly Cloudy
12:55 PM 84.2 °F 85.0 °F 62.6 °F 48% 30.21 in 10.0 mi ESE 8.1 mph - N/A   Mostly Cloudy
1:15 PM 84.2 °F 84.4 °F 60.8 °F 45% 30.20 in 10.0 mi East 8.1 mph - N/A   Mostly Cloudy
1:35 PM 84.2 °F 84.4 °F 60.8 °F 45% 30.20 in 10.0 mi East 9.2 mph - N/A   Mostly Cloudy
1:55 PM 84.2 °F 83.8 °F 59.0 °F 42% 30.20 in 10.0 mi ESE 8.1 mph - N/A   Scattered Clouds
2:15 PM 84.2 °F 83.8 °F 59.0 °F 42% 30.19 in 10.0 mi ESE 3.5 mph - N/A   Clear
2:35 PM 84.2 °F 83.8 °F 59.0 °F 42% 30.18 in 10.0 mi ESE 6.9 mph - N/A   Clear
2:55 PM 84.2 °F 83.8 °F 59.0 °F 42% 30.18 in 10.0 mi East 9.2 mph - N/A   Clear
3:15 PM 84.2 °F 83.8 °F 59.0 °F 42% 30.18 in 10.0 mi East 5.8 mph - N/A   Scattered Clouds
3:35 PM 82.4 °F 82.0 °F 57.2 °F 42% 30.18 in 10.0 mi NE 6.9 mph - N/A   Scattered Clouds
3:55 PM 82.4 °F 82.0 °F 57.2 °F 42% 30.18 in 10.0 mi NE 3.5 mph - N/A   Clear
4:15 PM 84.2 °F 83.5 °F 57.2 °F 40% 30.17 in 10.0 mi East 4.6 mph - N/A   Scattered Clouds
4:35 PM 82.4 °F 82.5 °F 59.0 °F 45% 30.17 in 10.0 mi East 6.9 mph - N/A   Scattered Clouds
4:55 PM 80.6 °F 81.5 °F 60.8 °F 51% 30.18 in 10.0 mi East 9.2 mph - N/A   Mostly Cloudy
5:35 PM 78.8 °F - 62.6 °F 57% 30.18 in 10.0 mi East 5.8 mph - N/A   Mostly Cloudy
5:55 PM 77.0 °F - 62.6 °F 61% 30.18 in 10.0 mi East 5.8 mph - N/A   Scattered Clouds
6:15 PM 77.0 °F - 62.6 °F 61% 30.18 in 10.0 mi East 5.8 mph - N/A   Clear
6:35 PM 75.2 °F - 62.6 °F 65% 30.19 in 10.0 mi East 4.6 mph - N/A   Clear
6:55 PM 75.2 °F - 64.4 °F 69% 30.20 in 10.0 mi ENE 4.6 mph - N/A   Scattered Clouds
7:15 PM 75.2 °F - 64.4 °F 69% 30.20 in 10.0 mi East 4.6 mph - N/A   Overcast
7:35 PM 75.2 °F - 64.4 °F 69% 30.21 in 10.0 mi East 3.5 mph - N/A   Mostly Cloudy
7:55 PM 73.4 °F - 64.4 °F 73% 30.21 in 10.0 mi East 3.5 mph - N/A   Scattered Clouds
8:15 PM 73.4 °F - 64.4 °F 73% 30.21 in 10.0 mi East 3.5 mph - N/A   Scattered Clouds
8:35 PM 73.4 °F - 64.4 °F 73% 30.21 in 10.0 mi East 4.6 mph - N/A   Scattered Clouds
8:55 PM 71.6 °F - 64.4 °F 78% 30.22 in 10.0 mi Calm Calm - N/A   Mostly Cloudy
9:35 PM 71.6 °F - 64.4 °F 78% 30.21 in 10.0 mi ESE 3.5 mph - N/A   Overcast
9:55 PM 71.6 °F - 64.4 °F 78% 30.21 in 10.0 mi Calm Calm - N/A   Overcast
10:15 PM 71.6 °F - 64.4 °F 78% 30.21 in 10.0 mi Calm Calm - N/A   Overcast
10:35 PM 71.6 °F - 64.4 °F 78% 30.22 in 10.0 mi Calm Calm - N/A   Overcast
10:55 PM 71.6 °F - 64.4 °F 78% 30.22 in 10.0 mi Calm Calm - N/A   Overcast
11:15 PM 71.6 °F - 64.4 °F 78% 30.21 in 10.0 mi Calm Calm - N/A   Overcast
11:35 PM 69.8 °F - 64.4 °F 83% 30.20 in 10.0 mi East 3.5 mph - N/A   Scattered Clouds
11:55 PM 69.8 °F - 64.4 °F 83% 30.19 in 10.0 mi ESE 4.6 mph - N/A   Clear